Weather Roundup
Issued by NWS Chicago, IL

Home | Current Version | Previous Version | Text Only | Print | Product List | Glossary On
Versions: 1 2 3 4 5 6 7 8 9 10 11 12 13 14 15 16 17 18 19 20 21 22 23 24 25 26 27 28 29 30 31 32 33 34 35 36 37 38 39 40 41 42 43 44 45 46 47 48 49 50
000
NZUS59 KLOT 050122
HRRLOT

CHICAGO AREA WEATHER ROUNDUP
NATIONAL WEATHER SERVICE CHICAGO/ROMEOVILLE IL
800 PM CDT FRI SEP 04 2015

NOTE: "FAIR" INDICATES FEW OR NO CLOUDS BELOW 12,000 FEET WITH NO
SIGNIFICANT WEATHER AND/OR OBSTRUCTIONS TO VISIBILITY.

* THESE STATIONS ARE NOT UNDER NWS QUALITY CONTROL. THEY ALSO MAY NOT
  REPORT WEATHER SUCH AS PRECIPITATION OR FOG.

ILZ005-006-012>014-019>023-050200-
NORTHEAST ILLINOIS

CITY           SKY/WX    TMP DP  RH WIND       PRES   REMARKS
OHARE          PTCLDY    73  67  81 E8        30.02F
MIDWAY           N/A     75  66  73 E8        30.03S
AURORA         CLEAR     79  69  71 E13       30.02R HX  81
LANSING*       PTCLDY    73  67  83 NE3       30.03R
JOLIET*        PTCLDY    77  70  79 E8        30.01R
WAUKEGAN       CLOUDY    68  67  96 E6        30.04S
DUPAGE AIRPORT CLEAR     75  66  73 E7        30.02S
WHEELING       PTCLDY    71  66  84 E6        30.05R
KANKAKEE*      MOCLDY    74  67  81 E5        30.01F
MORRIS*        CLEAR     78  72  81 E9        29.99R HX  80
LEWIS AIRPORT* CLEAR     74  66  76 E6        30.02S
NORTHERLY IS     N/A     71  67  87 E6          N/A
$$

WIZ051-052-058>065-066-070>072-050200-
SOUTHEAST WISCONSIN

CITY           SKY/WX    TMP DP  RH WIND       PRES   REMARKS
MILWAUKEE      MOCLDY    67  64  90 E5        30.03F
KENOSHA*       CLOUDY    68  65  90 E8        30.05S
RACINE*        MOCLDY    68  65  90 E6        30.06R
BURLINGTON     PTCLDY    68  63  86 E6        30.04S
WAUKESHA       PTCLDY    68  63  83 E7        30.05S
WEST BEND      CLEAR     66  63  88 CALM      30.05S
$$

INZ001>003-010>013-019-020-050200-
NORTHWEST INDIANA

CITY           SKY/WX    TMP DP  RH WIND       PRES   REMARKS
GARY*          PTCLDY    73  68  83 NE7       30.04S
MICHIGAN CITY* NOT AVBL
RENSSELAER*    NOT AVBL
VALPARAISO     PTCLDY    74  70  87 NE3       30.03F
$$

LMZ740>746-050200-
SOUTHERN LAKE MICHIGAN

STATION/POSITION TIME  SKY/WX   TEMP WIND        PRES    VSBY
                                AIR  DIR/SP/G
                 (UTC)          (F)  (DEG/KT/KT) (MB)    (MI)
HARRISON CRIB    0100            71   70/  5/  7   N/A
BURNHAM HARBOR   0100            71   60/  5/  6   N/A
CALUMET HARBOR   0100            72   50/  7/  9   N/A
BURNS HARBOR     0000            72   70/ 10/ 12 1017.3F
MICHIGAN CITY    0100            71   40/  9/  9   N/A
$$

ABBREVIATIONS USED IN REMARKS
   TC - TEMPERATURE IN CELSIUS
  WCI - WIND CHILL INDEX
   HX - HEAT INDEX
  VSB - VISIBILITY
$$


USA.gov is the U.S. government's official web portal to all federal, state and local government web resources and services.